Content
SEND FEEDBACK

Daily
Averages
Monthly
Summary
United States of America

STEAMBOAT SPRINGS, COLORADO


Home > North America > United States > Colorado
Elevation: 6917 feet     Latitude: 40 30N     Longitude: 106 50W

WEATHER
 
SELECT A DAY
Number of Records: 88,302;   Date Range: 1/3/95 - 9/29/14
 
SHARE

PRINT THIS DATA

[ ← Previous Day ]
WEATHER ALMANAC - MAY 7, 2013
[ Next Day → ]
[ °C ]   °F
Weather ElementAverageHighLow
Temperature46.2 °F56.7 °F (2:15 pm)39 °F (7:15 am)
Dewpoint34.9 °F41.2 °F (2:35 am)24.8 °F (3:55 pm)
Humidity68.3 %97 % (2:35 am)33 % (3:55 pm)
Barometer30.06 in30.10 in (6:55 am)30.02 in (3:35 pm)
Wind Speed2.4 mph12.7 mph (4:15 pm)
Wind Gust18.4 mph (4:15 pm)
Weather ElementAverage
Visibility9.4 mi
Wind DirectionENE (72.3 °)

Weather ElementTotal
Precipitation---
Heating Degree Days17.2 (Base 65)
Averaged from 69 records on May 7, 2013
WEATHER CONDITIONS BREAKOUT
WIND DIRECTION BREAKOUT
WEATHER BY HOUR - MAY 7, 2013
[ °C ]   °F
Local TimeTemperatureDewpointHumidityBarometerVisibilityWind DirectionWind SpeedGust SpeedPrecipitationEventsConditions
12:35 AM42.4 °F39.6 °F90 %30.05 in10.0 miCalmOvercast
12:55 AM42.6 °F39.9 °F90 %30.05 in10.0 miCalmOvercast
1:15 AM42.4 °F40.5 °F93 %30.05 in10.0 miCalmOvercast
1:35 AM42.3 °F40.6 °F94 %30.05 in7.0 miESE (120°)3.5 mphOvercast
1:55 AM42.3 °F40.8 °F95 %30.05 in7.0 miCalmOvercast
2:15 AM42.1 °F41.0 °F96 %30.06 in5.0 miCalmOvercast
2:35 AM42.1 °F41.2 °F97 %30.06 in4.0 miSW (220°)3.5 mphOvercast
2:55 AM41.2 °F40.1 °F96 %30.07 in7.0 miSW (220°)3.5 mphOvercast
3:15 AM41.4 °F39.0 °F91 %30.07 in7.0 miCalmOvercast
3:35 AM41.0 °F38.7 °F91 %30.08 in7.0 miNorth (10°)3.5 mphOvercast
3:55 AM40.3 °F37.4 °F89 %30.07 in7.0 miNorth (360°)6.9 mphOvercast
4:15 AM39.6 °F36.7 °F89 %30.08 in7.0 miCalmOvercast
4:35 AM40.1 °F36.7 °F88 %30.08 in7.0 miCalmOvercast
4:55 AM39.9 °F36.9 °F89 %30.08 in7.0 miCalmOvercast
5:15 AM39.7 °F37.2 °F91 %30.08 in10.0 miCalmOvercast
5:35 AM39.4 °F37.9 °F95 %30.08 in10.0 miCalmOvercast
5:55 AM39.2 °F37.8 °F95 %30.08 in10.0 miCalmOvercast
6:15 AM39.4 °F37.6 °F93 %30.08 in10.0 miCalmOvercast
6:35 AM39.6 °F38.3 °F95 %30.09 in10.0 miCalmOvercast
6:55 AM39.2 °F37.9 °F95 %30.10 in10.0 miCalmOvercast
7:15 AM39.0 °F37.6 °F95 %30.10 in10.0 miNW (310°)3.5 mphOvercast
7:35 AM39.2 °F37.8 °F95 %30.10 in10.0 miCalmOvercast
7:55 AM39.4 °F37.4 °F93 %30.10 in10.0 miWNW (300°)3.5 mphOvercast
8:15 AM40.1 °F37.9 °F92 %30.10 in5.0 miNW (310°)3.5 mphOvercast
8:35 AM40.6 °F38.7 °F93 %30.10 in10.0 miCalmOvercast
8:55 AM41.5 °F39.2 °F91 %30.10 in10.0 miCalmOvercast
9:15 AM42.1 °F39.0 °F89 %30.10 in10.0 miCalmOvercast
9:35 AM43.3 °F38.3 °F82 %30.10 in10.0 miCalmOvercast
9:55 AM44.6 °F38.3 °F79 %30.09 in10.0 miCalmOvercast
10:15 AM45.9 °F36.9 °F71 %30.08 in10.0 miCalmScattered Clouds
10:35 AM48.0 °F37.9 °F68 %30.08 in10.0 miCalmClear
10:55 AM49.1 °F35.1 °F58 %30.08 in10.0 miCalmClear
11:15 AM50.2 °F35.2 °F57 %30.08 in10.0 miCalmClear
11:35 AM51.3 °F35.4 °F55 %30.08 in10.0 miENE (60°)5.8 mphClear
12:15 PM53.6 °F33.4 °F46 %30.05 in10.0 miNE (50°)4.6 mphScattered Clouds
12:35 PM54.1 °F33.6 °F46 %30.05 in10.0 miWSW (240°)5.8 mphMostly Cloudy
12:55 PM54.0 °F32.2 °F44 %30.04 in10.0 miWSW (240°)3.5 mphOvercast
1:15 PM50.2 °F35.2 °F57 %30.04 in10.0 miNNW (340°)8.1 mphOvercast
1:35 PM51.6 °F32.0 °F47 %30.04 in10.0 miCalmScattered Clouds
1:55 PM52.7 °F32.0 °F45 %30.04 in10.0 miCalmClear
2:15 PM56.7 °F30.9 °F38 %30.03 in10.0 miESE (120°)6.9 mphClear
2:35 PM52.9 °F31.1 °F43 %30.04 in10.0 miSW (220°)6.9 mphMostly Cloudy
2:55 PM48.6 °F35.6 °F61 %30.04 in10.0 miSSE (150°)5.8 mphOvercast
3:15 PM52.7 °F32.5 °F46 %30.03 in10.0 miEast (80°)4.6 mphOvercast
3:35 PM55.0 °F30.9 °F40 %30.02 in10.0 miEast (90°)9.2 mphScattered Clouds
3:55 PM53.6 °F24.8 °F33 %30.02 in10.0 miCalmClear
4:15 PM53.1 °F28.6 °F39 %30.04 in10.0 miSSW (210°)12.7 mph18.4 mphClear
4:35 PM50.2 °F34.5 °F55 %30.04 in10.0 miSSW (200°)8.1 mphMostly Cloudy
4:55 PM50.5 °F27.3 °F41 %30.04 in10.0 miSouth (180°)4.6 mphOvercast
5:15 PM52.2 °F29.1 °F41 %30.02 in10.0 miCalmOvercast
5:55 PM52.7 °F29.8 °F42 %30.02 in10.0 miESE (120°)3.5 mphClear
6:15 PM52.5 °F29.7 °F42 %30.02 in10.0 miCalmClear
6:35 PM52.3 °F28.8 °F40 %30.02 in10.0 miCalmClear
6:55 PM53.1 °F29.7 °F41 %30.02 in10.0 miSW (230°)4.6 mphClear
7:15 PM52.7 °F29.8 °F42 %30.03 in10.0 miCalmClear
7:35 PM51.8 °F29.8 °F43 %30.04 in10.0 miCalmClear
7:55 PM50.2 °F31.8 °F49 %30.04 in10.0 miCalmClear
8:15 PM47.5 °F32.2 °F55 %30.04 in10.0 miCalmClear
8:35 PM46.2 °F33.1 °F60 %30.04 in10.0 miCalmClear
8:55 PM46.4 °F32.5 °F59 %30.05 in10.0 miSE (130°)9.2 mphScattered Clouds
9:15 PM46.2 °F33.1 °F60 %30.06 in10.0 miCalmMostly Cloudy
9:35 PM46.0 °F32.4 °F59 %30.07 in10.0 miEast (90°)6.9 mphOvercast
9:55 PM46.4 °F32.2 °F58 %30.08 in10.0 miEast (90°)9.2 mphOvercast
10:15 PM45.7 °F32.7 °F61 %30.08 in10.0 miEast (80°)4.6 mphOvercast
10:35 PM45.7 °F32.4 °F60 %30.08 in10.0 miEast (100°)3.5 mphMostly Cloudy
10:55 PM46.2 °F32.0 °F58 %30.08 in10.0 miCalmOvercast
11:15 PM46.4 °F31.5 °F56 %30.08 in10.0 miCalmOvercast
11:35 PM43.9 °F33.8 °F68 %30.08 in10.0 miESE (120°)4.6 mphOvercast
11:55 PM43.7 °F33.3 °F67 %30.08 in10.0 miCalmOvercast
Hourly data recorded from KSBS, located miles away from Steamboat Springs, Colorado







STORIES FROM OUR PARTNERS